• Processing (Info)

  • MPEC 2014-P09 : 2014 OZ337

    The following Minor Planet Electronic Circular may be linked-to from your own Web pages, but must not otherwise be redistributed electronically.

    A form allowing access to any MPEC is at the bottom of this page.


    Read MPEC 2014-P08 Read MPEC 2014-P10


    M.P.E.C. 2014-P09                                Issued 2014 Aug. 3, 01:41 UT
    
         The Minor Planet Electronic Circulars contain information on unusual
             minor planets and routine data on comets.  They are published
       on behalf of Commission 20 of the International Astronomical Union by the
              Minor Planet Center, Smithsonian Astrophysical Observatory,
                              Cambridge, MA 02138, U.S.A.
    
                 Prepared using the Tamkin Foundation Computer Network
    
                                  MPC@CFA.HARVARD.EDU
                URL https://www.minorplanetcenter.net/    ISSN 1523-6714
    
                                      2014 OZ337
    
    Observations:
         K14OX7Z* C2014 07 31.50551 22 27 08.723-25 14 49.23         16.8 wLEP009F51
         K14OX7Z  C2014 07 31.52545 22 27 04.469-25 09 19.55         16.8 wLEP009F51
         K14OX7Z  C2014 07 31.53539 22 27 02.360-25 06 35.27         16.8 wLEP009F51
         K14OX7Z KC2014 07 31.78729722 26 26.37 -23 56 36.4          17.1 VqEP009Q63
         K14OX7Z KC2014 07 31.78911522 26 26.07 -23 56 08.0          17.2 VqEP009Q63
         K14OX7Z KC2014 07 31.79094022 26 25.76 -23 55 39.4          17.0 VqEP009Q63
         K14OX7Z KC2014 07 31.79274422 26 25.47 -23 55 11.1          17.0 VqEP009Q63
         K14OX7Z KC2014 07 31.79456322 26 25.17 -23 54 42.5          16.9 VqEP009Q63
         K14OX7Z KC2014 07 31.79643522 26 24.86 -23 54 13.1          17.0 VqEP009Q63
         K14OX7Z KC2014 07 31.79829022 26 24.56 -23 53 44.2          17.0 VqEP009Q63
         K14OX7Z 5C2014 07 31.96729 22 26 17.16 -23 15 26.2          16.7  oEP009094
         K14OX7Z 5C2014 07 31.96944 22 26 16.74 -23 14 58.8          16.9  oEP009094
         K14OX7Z 5C2014 07 31.97016 22 26 16.63 -23 14 45.7          16.7  oEP009094
         K14OX7Z KC2014 07 31.99305 22 26 18.55 -23 09 00.4          16.6 RqEP009C27
         K14OX7Z  C2014 07 31.99349 22 26 26.51 -23 05 12.9          17.6 RrEP009Y00
         K14OX7Z  C2014 07 31.99392 22 26 26.44 -23 05 07.6          17.2 RrEP009Y00
         K14OX7Z  C2014 07 31.99434 22 26 26.41 -23 05 01.3          17.2 RrEP009Y00
         K14OX7Z KC2014 08 01.00534 22 26 16.46 -23 06 02.7          16.4 RqEP009C27
         K14OX7Z KC2014 08 01.00759 22 26 16.11 -23 05 30.8          16.8 RqEP009C27
         K14OX7Z KC2014 08 01.01141 22 26 15.44 -23 04 35.7          16.9 RqEP009C27
         K14OX7Z KC2014 08 01.01851 22 26 14.25 -23 02 53.1          16.9 RqEP009C27
         K14OX7Z KC2014 08 01.02147 22 26 13.77 -23 02 10.8          16.6 RqEP009C27
         K14OX7Z KC2014 08 01.02393322 26 13.45 -23 01 39.1          16.7 VqEP009I93
         K14OX7Z KC2014 08 01.03076322 26 12.32 -23 00 01.1          16.9 VqEP009I93
         K14OX7Z KC2014 08 01.03739122 26 11.22 -22 58 26.1          17.0 VqEP009I93
         K14OX7Z KC2014 08 01.24819722 25 49.27 -22 05 35.8          16.9 VqEP009W87
         K14OX7Z KC2014 08 01.25109422 25 48.75 -22 04 56.4          17.1 VqEP009W87
         K14OX7Z KC2014 08 01.25397422 25 48.25 -22 04 16.9          17.1 VqEP009W87
         K14OX7Z KC2014 08 01.25687922 25 47.75 -22 03 37.3          17.1 VqEP009W87
         K14OX7Z KC2014 08 01.26581 22 25 49.32 -22 04 51.4          17.1 VqEP009H21
         K14OX7Z KC2014 08 01.26945 22 25 48.73 -22 04 02.4          17.2 VqEP009H21
         K14OX7Z KC2014 08 01.27327 22 25 48.10 -22 03 10.6          16.8 VqEP009H21
         K14OX7Z KC2014 08 01.27672 22 25 47.54 -22 02 24.1          17.1 VqEP009H21
         K14OX7Z KC2014 08 01.28016 22 25 46.98 -22 01 37.4          17.0 VqEP009H21
         K14OX7Z KC2014 08 01.35560722 25 31.03 -21 41 17.7          17.1 VqEP009W87
         K14OX7Z KC2014 08 01.35996422 25 30.34 -21 40 18.9          17.0 VqEP009W87
         K14OX7Z KC2014 08 01.36429722 25 29.65 -21 39 20.4          16.9 VqEP009W87
         K14OX7Z KC2014 08 01.36868922 25 28.96 -21 38 21.0          17.0 VqEP009W87
         K14OX7Z KC2014 08 01.37303422 25 28.29 -21 37 22.4          17.1 VqEP009W87
         K14OX7Z KC2014 08 01.37734622 25 27.63 -21 36 24.2          17.0 VqEP009W87
         K14OX7Z KC2014 08 01.38167522 25 26.97 -21 35 25.9          17.0 VqEP009W87
         K14OX7Z KC2014 08 01.38599122 25 26.33 -21 34 27.8          17.1 VqEP009W87
         K14OX7Z KC2014 08 01.57894 22 25 21.53 -20 52 54.7          17.1 VqEP009E23
         K14OX7Z KC2014 08 01.58172 22 25 21.10 -20 52 20.1          17.1 VqEP009E23
         K14OX7Z KC2014 08 01.58450 22 25 20.66 -20 51 45.3          17.1 VqEP009E23
         K14OX7Z KC2014 08 01.58727 22 25 20.24 -20 51 10.9          17.2 VqEP009E23
         K14OX7Z KC2014 08 01.94028 22 24 50.20 -19 43 34.5          17.1 VqEP009595
         K14OX7Z KC2014 08 01.94598 22 24 49.47 -19 42 29.6          17.4 VqEP009595
         K14OX7Z KC2014 08 01.95167 22 24 48.75 -19 41 24.4          17.1 VqEP009595
         K14OX7Z KC2014 08 02.59770 22 23 58.21 -17 42 39.6          17.5 V EP009Q62
         K14OX7Z KC2014 08 02.60091 22 23 57.79 -17 42 07.8          17.6 V EP009Q62
    
    Observer details:
    094 Simeis.  Observers I. Nikolenko, S. Barabanov, S. Kryuchkov, E. Bakanas.
        Measurer E. Bakanas.  1.0-m f/12.7 reflector + CCD.
    595 Farra d'Isonzo.  Observers D. Caporicci, E. Pettarin, M. Vivona.  Measurer
        E. Pettarin.  0.40-m f/4.5 reflector + CCD.
    C27 Pallerols.  Observer A. Jorba.  0.25-m f/4.8 reflector + CCD.
    E23 Arcadia.  Observer A. Hidas.  0.35-m Schmidt-Cassegrain + CCD.
    F51 Pan-STARRS 1, Haleakala.  Observers N. Primak, A. Schultz, T. Goggia,
        M. Willman.  1.8-m Ritchey-Chretien + CCD.
    H21 Astronomical Research Observatory, Westfield.  Observer R. Holmes.
        Measurers L. Buzzi, S. Foglia, T. Vorobjov, T. Linder.  0.61-m f/4.0
        astrograph + CCD.
    I93 St Pardon de Conques.  Observer F. Losse.  0.40-m f/3.7 reflector + CCD.
    Q62 iTelescope Observatory, Siding Spring.  Observer M. Suzuki.  0.51-m f/6.8
        astrograph + CCD + f/4.5 focal reducer.
    Q63 Siding Spring-LCOGT A.  Observer T. Lister.  1.0-m f/8 Ritchey-Chretien
        + CCD.
    W87 Cerro Tololo-LCOGT C.  Observer T. Lister.  1.0-m f/8 Ritchey-Chretien
        + CCD.
    Y00 SONEAR Observatory, Oliveira.  Observers C. Jacques, E. Pimentel,
        J. Barros.  Measurer C. Jacques.  0.45-m f/2.9 reflector + CCD.
    
    Orbital elements:
    2014 OZ337                                               Earth MOID = 0.0210 AU
    Epoch 2014 May 23.0 TT = JDT 2456800.5                  MPC
    M 349.44747              (2000.0)            P               Q
    n   0.29833477     Peri.  311.25389     -0.06111299     +0.99620496
    a   2.2181971      Node   315.12471     -0.88749337     -0.08264725
    e   0.5707784      Incl.    5.03919     -0.45675017     +0.02729680
    P   3.30           H   22.5           G   0.15           U   5
    Residuals in seconds of arc
    140731 F51  0.2-  0.1+    140801 C27  0.5-  0.3+    140801 W87  0.0   0.2+
    140731 F51  0.0   0.0     140801 C27  0.1-  0.2-    140801 W87  0.0   0.2+
    140731 F51  0.0   0.0     140801 C27  0.4-  0.1-    140801 W87  0.1-  0.1+
    140731 Q63  0.1-  0.1+    140801 C27  0.3-  0.3+    140801 W87  0.1-  0.2+
    140731 Q63  0.1-  0.1-    140801 C27  0.1+  0.1+    140801 W87  0.1-  0.2+
    140731 Q63  0.2-  0.1-    140801 I93  0.2-  0.2+    140801 W87  0.1-  0.2+
    140731 Q63  0.0   0.1-    140801 I93  0.0   0.0     140801 W87  0.1-  0.2+
    140731 Q63  0.1-  0.0     140801 I93  0.1+  0.2-    140801 W87  0.1+  0.1+
    140731 Q63  0.1-  0.1+    140801 W87  0.1+  0.1-    140801 E23  0.2+  0.1-
    140731 Q63  0.1-  0.1-    140801 W87  0.1-  0.1-    140801 E23  0.2+  0.2-
    140731 094  2.6+  2.2+    140801 W87  0.1-  0.1+    140801 E23  0.0   0.0
    140731 094  1.9+  1.9-    140801 W87  0.0   0.2+    140801 E23  0.1+  0.0
    140731 094  2.1+  0.6+    140801 H21  0.1-  0.0     140801 595  0.4-  0.1-
    140731 C27  0.1-  0.2-    140801 H21  0.1-  0.2-    140801 595  0.2-  0.3-
    140731 Y00  0.0   0.3+    140801 H21  0.2-  0.0     140801 595  0.2+  0.2-
    140731 Y00  0.2-  0.5-    140801 H21  0.1-  0.1-    140802 Q62  0.2-  0.0
    140731 Y00  0.2+  0.2-    140801 H21  0.1-  0.1+    140802 Q62  0.1-  0.2+
    
    Ephemeris:
    2014 OZ337               a,e,i = 2.22, 0.57, 5                   q = 0.9521
    Date    TT    R. A. (2000) Decl.     Delta      r     Elong.  Phase     V
    2014 07 04    10 09 42.4 -13 14 08   0.1386  0.9562    60.6   112.2    22.4
    ...
    2014 07 19    10 07 25.2 -31 37 59   0.04844 0.9942    61.7   115.8    20.5
    ...
    2014 07 27    23 02 32.2 -66 34 41   0.02218 1.0289   126.3    52.7    16.2
    ...
    2014 08 02    22 24 40.4 -19 29 41   0.04917 1.0603   157.0    22.0    17.1
    2014 08 03    22 23 26.9 -16 39 35   0.05499 1.0659   158.0    20.9    17.4
    2014 08 04    22 22 26.1 -14 22 24   0.06094 1.0717   158.8    20.0    17.6
    ...
    2014 08 10    22 18 25.7 -06 43 48   0.09848 1.1081   162.7    15.7    18.5
    ...
    2014 08 18    22 15 00.8 -02 52 49   0.1521  1.1613   167.7    10.7    19.4
    ...
    2014 09 02    22 11 32.3 -00 51 37   0.2658  1.2712   169.3     8.5    20.7
    
    A. U. Tomatic                (C) Copyright 2014 MPC           M.P.E.C. 2014-P09
    

    Read MPEC 2014-P08 Read MPEC 2014-P10


    MPEC number:

    Enter an MPEC number in one of the following forms:

    • 1997-B01 (the full form)
    • J97B01 (the packed version of the full form)
    • B01 (the abbreviated form)